User: anonymous   Login
Location: Unspecified
(0.0000°N, 0.0000°E)
Time: 13:04:29
(UTC+02:00)
Language:

NOSS 3-3 (A) - Orbit

View from above orbital plane
View from above orbital plane
View from above satellite
View from above satellite

Ground track
Ground track

The orbit data is extracted from the following two-line orbital elements,

1 28537U 05004A   15186.90532446 0.00000100  00000-0  16116-3 0    00
2 28537  63.4294 203.2772 0201000 358.5738   1.4262 13.40688761    09
Epoch (UTC): 05 July 2015 21:43:40
Eccentricity: 0.0201000
inclination: 63.4294°
perigee height: 956 km
apogee height: 1257 km
right ascension of ascending node: 203.2772°
argument of perigee: 358.5738°
revolutions per day: 13.40688761
mean anomaly at epoch: 1.4262°
orbit number at epoch: 0

The dashed part of the orbit path shows where the satellite is in the earth's shadow,  

DLR